STARLINK-36136

Last updated on Fri Dec 19 2025 00:02:09 GMT+0000 (Coordinated Universal Time)

1 66967U 25288J 25352.58336806 -.01282136 00000+0 -56586-2 0 9991 2 66967 43.0010 131.3810 0001562 266.3439 314.7248 15.86131839 2778
UTC large
Height (km)
Speed (km/s)
/
Latitude / Longitude
Inclination (degrees)
Orbital Period (minutes)
Azimuth
Elevation
Range (km)
Doppler Factor

Next 0 passes for location: London (51.5072 / 0.1276)

Sorry there are no passes over London.